Regional Weather Roundup
Issued by NWS

Home | Current Version | Previous Version | Text Only | Print | Product List | Glossary Off
Versions: 1 2 3 4 5 6 7 8 9 10 11 12 13 14 15 16 17 18 19 20 21 22 23 24 25 26 27 28 29 30 31 32 33 34 35 36 37 38 39 40 41 42 43 44 45 46 47 48 49 50

000
ASUS45 KCYS 020610
RWRWY

WYOMING REGIONAL WEATHER ROUNDUP
NATIONAL WEATHER SERVICE CHEYENNE WY
1200 AM MDT TUE JUN 02 2015

NOTE:  "FAIR" INDICATES FEW OR NO CLOUDS BELOW 12,000 FEET
WITH NO SIGNIFICANT WEATHER AND/OR OBSTRUCTIONS TO VISIBILITY.

WYZ001-020700-
YELLOWSTONE NATIONAL PARK

CITY           SKY/WX    TMP DP  RH WIND       PRES   REMARKS
LK YELLOWSTONE   N/A     37  35  92 CALM      30.11S
6HR MIN TEMP:  37; 6HR MAX TEMP:  62; 6HR PCP:  0.05;

W YELLOWSTONE  NOT AVBL

$$
WYZ002>013-054>058-071-098>099-020700-
NORTHERN WYOMING

CITY           SKY/WX    TMP DP  RH WIND       PRES   REMARKS
JACKSON        FAIR      43  43 100 CALM      30.06F
CODY           FAIR      57  43  58 SW3       29.94R
GREYBULL       FAIR      61  50  67 SW5       29.88F
6HR MIN TEMP:  61; 6HR MAX TEMP:  72; 6HR PCP: TRACE;

WORLAND        MOCLDY    60  49  66 NE20      29.83F
6HR MIN TEMP:  59; 6HR MAX TEMP:  77; 6HR PCP: TRACE;

SHERIDAN       LGT RAIN  61  52  72 N15G25    29.93R
6HR MIN TEMP:  59; 6HR MAX TEMP:  77; 6HR PCP:  0.10;

BUFFALO        FAIR      61  47  59 N16G25    29.95R
6HR MIN TEMP:  59; 6HR MAX TEMP:  76; 6HR PCP:  0.04;

GILLETTE       FAIR      56  50  80 SE7       29.88R
6HR MIN TEMP:  56; 6HR MAX TEMP:  83; 6HR PCP: TRACE;

HULETT         FAIR      70  45  40 S13G18    29.87R
NEWCASTLE      FAIR      64  45  48 MISG      29.87F

$$
WYZ014>020-022>026-101>103-020700-
CENTRAL WYOMING

CITY           SKY/WX    TMP DP  RH WIND       PRES   REMARKS
BIG PINEY      FAIR      45  39  79 W5        30.08F
6HR MIN TEMP:  45; 6HR MAX TEMP:  73;

PINEDALE       FAIR      45  41  87 NW5       30.08F
DUBOIS         FAIR      45  39  81 W13       30.04F
LANDER         FAIR      54  43  66 W10       29.97F
6HR MIN TEMP:  54; 6HR MAX TEMP:  74;

RIVERTON       FAIR      57  42  57 NW14      29.96F
6HR MIN TEMP:  57; 6HR MAX TEMP:  75; 6HR PCP: TRACE;

CASPER         FAIR      61  45  55 SW15G28   29.98R
6HR MIN TEMP:  57; 6HR MAX TEMP:  72; 6HR PCP: TRACE;

DOUGLAS        FAIR      59  49  69 S7        29.92S
6HR MIN TEMP:  58; 6HR MAX TEMP:  74; 6HR PCP:  0.06;


$$
WYZ021-027>030-104>119-020700-
SOUTHERN WYOMING

CITY           SKY/WX    TMP DP  RH WIND       PRES   REMARKS
EVANSTON       FAIR      51  39  63 N6        30.08F
6HR MIN TEMP:  49; 6HR MAX TEMP:  76;

KEMMERER       FAIR      50  36  57 E3        30.10R
FORT BRIDGER   CLEAR     50  41  71 SE8       30.12S
ROCK SPRINGS   FAIR      53  38  56 VRB3      30.07S
6HR MIN TEMP:  52; 6HR MAX TEMP:  69; 6HR PCP: TRACE;

DIXON          FAIR      56  43  61 CALM      30.06R
RAWLINS        LGT RAIN  57  47  69 NW10      30.09R
6HR MIN TEMP:  53; 6HR MAX TEMP:  75; 6HR PCP:  0.13;

SARATOGA       FAIR      52  43  71 SE3       30.07F
LARAMIE        FAIR      48  44  86 CALM      30.10S
6HR MIN TEMP:  48; 6HR MAX TEMP:  66; 6HR PCP:  0.01;

CHEYENNE       FAIR      58  48  69 NE6       30.08R
6HR MIN TEMP:  58; 6HR MAX TEMP:  72;

TORRINGTON     FAIR      61  53  75 SE8       29.94F
6HR MIN TEMP:  61; 6HR MAX TEMP:  76;

PINE BLUFFS    FAIR      59  50  72 NE3       30.05R

$$


USA.gov is the U.S. government's official web portal to all federal, state and local government web resources and services.